Regional Weather Roundup
Issued by NWS

Home | Current Version | Previous Version | Graphics & Text | Print | Product List | Glossary On
Versions: 1 2 3 4 5 6 7 8 9 10 11 12 13 14 15 16 17 18 19 20 21 22 23 24 25 26 27 28 29 30 31 32 33 34 35 36 37 38 39 40 41 42 43 44 45 46 47 48 49 50
000
ASUS45 KBOU 061207
RWRCO

WEATHER ROUNDUP FOR COLORADO
NATIONAL WEATHER SERVICE DENVER/BOULDER CO
600 AM MDT WED MAY 06 2015

NOTE: "FAIR" INDICATES FEW OR NO CLOUDS BELOW 12000 FEET WITH NO
SIGNIFICANT WEATHER AND/OR OBSTRUCTIONS TO VISIBILITY.

COZ001>005-013-030-031-061300-
...NORTHWEST COLORADO...

CITY           SKY/WX    TMP DP  RH WIND       PRES   REMARKS
CRAIG          CLOUDY    48  45  89 W7        29.80S
HAYDEN         CLOUDY    46  43  87 W14       29.80S
MEEKER         LGT RAIN  46  44  93 NE6       29.82S FOG
MOUNT WERNER   NOT AVBL
STEAMBOAT SPGS CLOUDY    44  43  95 CALM      29.80S
WALDEN         CLOUDY    39  37  93 CALM      29.81S
$$

COZ006>008-011-061300-
...WEST CENTRAL VALLEYS...

CITY           SKY/WX    TMP DP  RH WIND       PRES   REMARKS
GRAND JUNCTION LGT RAIN  52  51  97 CALM      29.79F
MONTROSE       CLOUDY    50  48  93 SE6       29.85S
EAGLE          CLOUDY    43  41  93 E3        29.86S
RIFLE          LGT RAIN  48  44  86 SE3       29.82S
DELTA          CLOUDY    53  52  97 CALM      29.82S
NUCLA          LGT RAIN  48  45  87 CALM      29.90S
$$

COZ017>023-064>068-061300-
...SOUTHWEST COLORADO...

CITY           SKY/WX    TMP DP  RH WIND       PRES   REMARKS
DURANGO        CLOUDY    46  45  96 SW6       29.92S
CORTEZ         CLOUDY    49  45  86 S13       29.90S
PAGOSA SPRINGS LGT RAIN  44  44  99 SW5       29.94S
TELLURIDE      LGT RAIN N/A N/A N/A CALM      29.98F
WOLF CREEK PAS NOT AVBL
$$

COZ009-010-012-014-032>034-037-058>063-061300-
...CENTRAL COLORADO...

CITY           SKY/WX    TMP DP  RH WIND       PRES   REMARKS
ASPEN          LGT RAIN N/A N/A N/A CALM      29.87S
BUENA VISTA    NOT AVBL
COPPER MTN     CLOUDY    34  30  86 W12       29.96F WCI  25
BERTHOUD PASS  CLOUDY    27  19  74 NW28G38   29.93F WCI  11
COTTONWOOD PAS CLOUDY    43  34  70 NW6G17    29.88S
GUNNISON       MOCLDY    43  37  81 N3        29.90S
KREMMLING      RAIN      39  34  81 W15       29.84S
LEADVILLE      LGT RAIN  35  33  92 N8        29.88S WCI  29
MONARCH PASS   CLOUDY    32  30  93 MISG      30.05S
SALIDA         CLOUDY    48  39  71 SW13G23   29.88S
SUNLIGHT       LGT SNOW  36  34  93 CALM      29.98S VSB 1
WILKERSON PASS SNOW      32  32 100 W9G21     29.93S VSB 1/2 WCI  24
$$

COZ069>075-061300-
...SAN LUIS VALLEY/SANGRE DE CRISTO MOUNTAINS...

CITY           SKY/WX    TMP DP  RH WIND       PRES   REMARKS
ALAMOSA        FOG       39  38  96 SW3       29.86S VSB 1/4
LA VETA PASS   CLOUDY   N/A N/A N/A MISG      29.87S
SAGUACHE       NOT AVBL
$$

COZ035-036-038>040-061300-
...NORTHERN COLORADO FRONT RANGE...

CITY           SKY/WX    TMP DP  RH WIND       PRES   REMARKS
DENVER INTL AP LGT RAIN  49  47  93 SW8       29.70S
DMNS CITY PARK   N/A     49  47  95 S1        29.71R
AURORA         LGT RAIN  47  47 100 SW2       29.72S
FRONT RANGE AP LGT RAIN  50  50 100 SW9       29.71F
ERIE MUNI ARPT CLOUDY    49  48  95 CALM      29.69S
BOULDER MUN AP CLOUDY    48  46  93 SW5       29.69F
CENTENNIAL     CLOUDY    48  47  96 CALM      29.72S
BROOMFIELD     CLOUDY    48  48 100 SW7       29.72R
FORT COLLINS   CLOUDY    50  46  87 CALM      29.71R
LONGMONT       CLOUDY    49  47  92 CALM      29.71S
$$

COZ041-046-047-076>085-087-088-061300-
...PIKES PEAK/PALMER DIVIDE AND SOUTHERN FOOTHILLS...

CITY           SKY/WX    TMP DP  RH WIND       PRES   REMARKS
COLO. SPRINGS  LGT RAIN  47  45  93 NE6       29.74S
A. F. ACADEMY  LGT RAIN  45  45 100 NE1       29.74S
ELLICOTT       LGT RAIN N/A N/A N/A CALM      29.73S
FALCON         DRIZZLE   44  44  99 CALM      29.77S
FORT CARSON    DRIZZLE   46  46 100 N5        29.72R
LIMON          LGT RAIN  48  46  93 CALM      29.72S
MONUMENT HILL  DRIZZLE   41  41 100 CALM      29.75S
TRINIDAD       MOCLDY    47  42  83 NW8       29.74R
$$

COZ042>045-048>051-090-091-061300-
...NORTHEAST COLORADO...

CITY           SKY/WX    TMP DP  RH WIND       PRES   REMARKS
GREELEY ARPT     N/A    N/A N/A N/A MISG        N/A
AKRON          CLOUDY    51  50  96 S14       29.65F
BURLINGTON     CLOUDY    50  49  96 S10       29.71S
WRAY           CLOUDY   N/A N/A N/A S9G16     29.69S
STERLING       CLOUDY    52  52 100 SE9       29.62F FOG
HOLYOKE        NOT AVBL
FORT MORGAN    RAIN      50  49  95 NW9       29.65S
$$

COZ086-089-092>099-061300-
...SOUTHEAST COLORADO...

CITY           SKY/WX    TMP DP  RH WIND       PRES   REMARKS
PUEBLO         CLOUDY    50  50 100 CALM      29.70R
LA JUNTA       LGT RAIN  53  50  89 SW5       29.69S
LAMAR          CLOUDY    51  49  92 SE7       29.67S
SPRINGFIELD      N/A     47  47 100 SW5       29.70R
$$



USA.gov is the U.S. government's official web portal to all federal, state and local government web resources and services.